Location: Elk Horn Observatory
(36.6768°N, 80.8309°W)
Time: 16:24:48
(UTC-05:00)

Envisat - Pass Details

Date: 24 January 2019
Orbit: 764 x 766 km, 98.2° (Epoch: 19 February)

Event Time Altitude Azimuth Distance (km) Brightness Sun altitude
Rises 20:31:34 0° 213° (SSW) 3,217 6.6 -34.3°
Reaches altitude 10° 20:35:07 10° 239° (WSW) 2,297 6.1 -35.0°
Maximum altitude 20:37:34 14° 269° (W) 2,062 5.9 -35.5°
Drops below altitude 10° 20:40:02 10° 298° (WNW) 2,304 6.1 -35.9°
Sets 20:43:37 0° 324° (NW) 3,236 6.7 -36.7°
